Flag for Ireland Weather past 2 weeks in Galway, Ireland

Now
48 °F

Sprinkles. Passing clouds.


Feels Like: 40 °F
Forecast: N/A
Wind: 29 mph from West

Location: Shannon Airport

Current Time: Feb 28, 2015 at 7:46:12 PM

Latest Report: Feb 28, 2015 at 7:00 PM


Visibility: 5 mi

Pressure: 29.33 "Hg

Humidity: 82%

Dew point: 43 °F

Location of GalwayLocation

Historic Weather in Galway — Graph

°F

Galway temperature yesterday

Maximum temperature yesterday: 48 °F (at 10:30 PM)
Minimum temperature yesterday: 37 °F (at 12:00 AM)
Average temperature yesterday: 43 °F

Past Weeks' High & Low Weather Summary

 TemperatureHumidityPressure
High54 °F (Feb 18, 11:00 AM)100% (Feb 14, 8:00 AM)30.60 "Hg (Feb 14, 8:00 AM)
Low34 °F (Feb 16, 11:30 PM)53% (Feb 26, 11:00 AM)29.00 "Hg (Feb 23, 3:00 PM)
Average44 °F84%29.82 "Hg
* Reported Feb 13 7:00 PM — Feb 28 7:00 PM, Galway, Weather by CustomWeather, © 2015

Note: Actual official high and low records may vary slightly from our data, if they occured in-between our weather recording intervals... More about our weather records

Advertising

Galway weather history for previous 24 hours

 ConditionsComfort  
Time TempWeatherWind HumidityBarometerVisibility
7:00 PM
Sat, Feb 28
48 °FSprinkles. Passing clouds.29 mph82%29.33 "Hg5 mi
6:30 PM50 °FPassing clouds.35 mph76%29.30 "Hg4 mi
6:00 PM50 °FDrizzle. Partly sunny.37 mph82%29.27 "Hg4 mi
5:30 PM52 °FDrizzle. Broken clouds.33 mph77%29.24 "Hg4 mi
5:00 PM54 °FBroken clouds.39 mph77%29.21 "Hg4 mi
4:30 PM54 °FScattered clouds.39 mph82%29.21 "Hg4 mi
4:00 PM54 °FDrizzle. Broken clouds.31 mph88%29.21 "Hg4 mi
3:30 PM54 °FDrizzle. Broken clouds.22 mph88%29.21 "Hg4 mi
3:00 PM54 °FDrizzle. Partly sunny.24 mph88%29.24 "Hg4 mi
2:30 PM52 °FDrizzle. Partly sunny.16 mph88%29.27 "HgN/A
2:00 PM52 °FDrizzle. Partly sunny.23 mph82%29.27 "HgN/A
1:30 PM52 °FPartly sunny.18 mph77%29.33 "HgN/A
1:00 PM52 °FPartly sunny.21 mph72%29.36 "HgN/A
12:30 PM52 °FPartly sunny.16 mph72%29.42 "HgN/A
12:00 PM50 °FPartly sunny.15 mph76%29.45 "HgN/A
11:30 AM50 °FPartly sunny.16 mph76%29.47 "HgN/A
11:00 AM48 °FPartly sunny.13 mph82%29.50 "Hg5 mi
10:30 AM48 °FPartly sunny.14 mph76%29.53 "Hg6 mi
10:00 AM46 °FPartly sunny.13 mph82%29.56 "Hg6 mi
9:30 AM46 °FBroken clouds.10 mph82%29.59 "Hg4 mi
9:00 AM46 °FBroken clouds.12 mph82%29.62 "Hg4 mi
8:30 AM46 °FBroken clouds.12 mph82%29.62 "Hg4 mi
8:00 AM46 °FBroken clouds.12 mph82%29.65 "Hg4 mi
7:30 AM46 °FBroken clouds.8 mph82%29.65 "Hg4 mi
7:00 AM46 °FPassing clouds.10 mph82%29.65 "Hg4 mi
6:30 AM46 °FPassing clouds.9 mph87%29.68 "Hg5 mi
6:00 AM46 °FPassing clouds.10 mph87%29.71 "Hg5 mi
5:30 AM46 °FPartly cloudy.12 mph87%29.71 "Hg4 mi
5:00 AM46 °FPassing clouds.10 mph87%29.71 "Hg4 mi
4:30 AM46 °FPassing clouds.12 mph87%29.71 "Hg4 mi
4:00 AM46 °FPassing clouds.12 mph87%29.71 "Hg5 mi
3:30 AM46 °FPassing clouds.13 mph87%29.71 "Hg4 mi
3:00 AM48 °FPassing clouds.15 mph82%29.71 "Hg4 mi
2:30 AM46 °FPassing clouds.12 mph87%29.71 "Hg4 mi
2:00 AM46 °FPassing clouds.13 mph87%29.71 "Hg4 mi
1:30 AM46 °FPassing clouds.13 mph87%29.74 "Hg4 mi
1:00 AM46 °FPassing clouds.10 mph87%29.74 "Hg4 mi
12:30 AM46 °FPassing clouds.8 mph93%29.77 "Hg4 mi
12:00 AM48 °FPassing clouds.13 mph82%29.77 "HgN/A
11:30 PM
Fri, Feb 27
48 °FOvercast.12 mph87%29.77 "Hg4 mi
11:00 PM48 °FPassing clouds.9 mph87%29.77 "Hg5 mi
10:30 PM48 °FPassing clouds.8 mph87%29.77 "Hg5 mi
10:00 PM46 °FPartly cloudy.7 mph93%29.77 "HgN/A
9:30 PM46 °FPassing clouds.9 mph93%29.77 "HgN/A
9:00 PM46 °FPartly cloudy.12 mph93%29.77 "HgN/A
8:30 PM46 °FPassing clouds.15 mph93%29.77 "Hg5 mi
8:00 PM46 °FPassing clouds.16 mph87%29.77 "HgN/A
7:30 PM46 °FPassing clouds.16 mph87%29.77 "HgN/A
7:00 PM46 °FPassing clouds.20 mph82%29.77 "HgN/A
Weather by CustomWeather, © 2015

See weather overviewHow to use our weather pages